When you browse on this site, cookies collect data to enhance your experience and personalize the content and advertising you see.
Visit our Privacy Policy to learn more. By continuing to use the site, you agree to this use of cookies and data.
  • In Österreich
  • Länderverzeichnis
  • Für 7 Tage
  • Wassertemperatur
  • Wetterkarte
  • News
  • Widgets
  • user-avatar
    Anmelden

    Stündliche Wetter Chios

    Heute, 20 Januar, Montag

    Zeit Temperatur Niederschläge Wind Luftdruck Luftfeuchtigkeit
    00:00 +5°C° 0 mm 9 m/S 764 mmHg 69%
    01:00 +5°C° 0 mm 9 m/S 765 mmHg 71%
    02:00 +5°C° 0 mm 9 m/S 765 mmHg 73%
    03:00 +3°C° 0 mm 9 m/S 765 mmHg 72%
    04:00 +3°C° 0 mm 9 m/S 766 mmHg 72%
    05:00 +3°C° 0 mm 9 m/S 766 mmHg 72%
    06:00 +3°C° 0 mm 9 m/S 767 mmHg 74%
    07:00 +3°C° 0 mm 9 m/S 767 mmHg 75%
    08:00 +5°C° 0 mm 9 m/S 768 mmHg 76%
    09:00 +5°C° 0 mm 9 m/S 769 mmHg 73%
    10:00 +6°C° 0 mm 8 m/S 769 mmHg 71%
    11:00 +6°C° 0 mm 8 m/S 770 mmHg 68%
    12:00 +6°C° 0 mm 8 m/S 770 mmHg 66%
    13:00 +6°C° 0 mm 8 m/S 770 mmHg 65%
    14:00 +7°C° 0 mm 8 m/S 770 mmHg 64%
    15:00 +6°C° 0 mm 9 m/S 770 mmHg 65%
    16:00 +6°C° 0 mm 9 m/S 771 mmHg 66%
    17:00 +6°C° 0 mm 9 m/S 771 mmHg 66%
    18:00 +5°C° 0 mm 9 m/S 771 mmHg 68%
    19:00 +5°C° 0 mm 9 m/S 772 mmHg 69%
    20:00 +3°C° 0 mm 10 m/S 772 mmHg 71%
    21:00 +3°C° 0 mm 9 m/S 772 mmHg 71%
    22:00 +3°C° 0 mm 9 m/S 773 mmHg 72%
    23:00 +3°C° 0 mm 9 m/S 773 mmHg 72%

    Morgen, 21 Januar, Dienstag

    Zeit Temperatur Niederschläge Wind Luftdruck Luftfeuchtigkeit
    00:00 +2°C° 0 mm 9 m/S 773 mmHg 72%
    01:00 +2°C° 0 mm 9 m/S 773 mmHg 73%
    02:00 +2°C° 0 mm 9 m/S 773 mmHg 73%
    03:00 +1°C° 0 mm 9 m/S 773 mmHg 73%
    04:00 +1°C° 0 mm 9 m/S 772 mmHg 74%
    05:00 +1°C° 0 mm 9 m/S 772 mmHg 74%
    06:00 +1°C° 0 mm 9 m/S 772 mmHg 74%
    07:00 +1°C° 0 mm 8 m/S 772 mmHg 75%
    08:00 0°C° 0 mm 8 m/S 772 mmHg 75%
    09:00 +1°C° 0 mm 8 m/S 772 mmHg 72%
    10:00 +2°C° 0 mm 9 m/S 773 mmHg 69%
    11:00 +3°C° 0 mm 9 m/S 773 mmHg 66%
    12:00 +5°C° 0 mm 9 m/S 772 mmHg 64%
    13:00 +5°C° 0 mm 9 m/S 772 mmHg 63%
    14:00 +6°C° 0 mm 9 m/S 771 mmHg 62%
    15:00 +5°C° 0 mm 9 m/S 771 mmHg 64%
    16:00 +5°C° 0 mm 9 m/S 771 mmHg 65%
    17:00 +3°C° 0 mm 9 m/S 770 mmHg 67%
    18:00 +3°C° 0 mm 9 m/S 770 mmHg 70%
    19:00 +2°C° 0 mm 8 m/S 770 mmHg 73%
    20:00 +2°C° 0 mm 8 m/S 770 mmHg 75%
    21:00 +2°C° 0 mm 8 m/S 770 mmHg 76%
    22:00 +2°C° 0 mm 8 m/S 769 mmHg 77%
    23:00 +2°C° 0 mm 8 m/S 769 mmHg 78%

    übermorgen, 22 Januar, Mittwoch

    Zeit Temperatur Niederschläge Wind Luftdruck Luftfeuchtigkeit
    00:00 +2°C° 0 mm 8 m/S 769 mmHg 78%
    01:00 +2°C° 0 mm 7 m/S 769 mmHg 78%
    02:00 +2°C° 0 mm 7 m/S 768 mmHg 79%
    03:00 +2°C° 0 mm 7 m/S 768 mmHg 79%
    04:00 +2°C° 0 mm 7 m/S 768 mmHg 79%
    05:00 +2°C° 0 mm 7 m/S 767 mmHg 79%
    06:00 +2°C° 0 mm 7 m/S 767 mmHg 78%
    07:00 +2°C° 0 mm 7 m/S 767 mmHg 78%
    08:00 +2°C° 0 mm 7 m/S 767 mmHg 77%
    09:00 +4°C° 0 mm 7 m/S 767 mmHg 71%
    10:00 +5°C° 0 mm 6 m/S 767 mmHg 64%
    11:00 +8°C° 0 mm 6 m/S 767 mmHg 57%
    12:00 +8°C° 0 mm 6 m/S 766 mmHg 54%
    13:00 +9°C° 0 mm 6 m/S 766 mmHg 52%
    14:00 +10°C° 0 mm 6 m/S 765 mmHg 49%
    15:00 +9°C° 0 mm 6 m/S 764 mmHg 52%
    16:00 +8°C° 0 mm 5 m/S 764 mmHg 55%
    17:00 +8°C° 0 mm 5 m/S 764 mmHg 58%
    18:00 +7°C° 0 mm 5 m/S 763 mmHg 60%
    19:00 +6°C° 0 mm 4 m/S 763 mmHg 62%
    20:00 +6°C° 0 mm 4 m/S 763 mmHg 63%
    21:00 +6°C° 0 mm 4 m/S 763 mmHg 64%
    22:00 +7°C° 0 mm 3 m/S 763 mmHg 65%
    23:00 +5°C° 0 mm 3 m/S 762 mmHg 66%

    23 Januar, Donnerstag

    Zeit Temperatur Niederschläge Wind Luftdruck Luftfeuchtigkeit
    00:00 +5°C° 0 mm 3 m/S 762 mmHg 69%
    01:00 +5°C° 0 mm 4 m/S 762 mmHg 71%
    02:00 +5°C° 0 mm 4 m/S 762 mmHg 74%
    03:00 +5°C° 0 mm 4 m/S 761 mmHg 75%
    04:00 +5°C° 0 mm 3 m/S 761 mmHg 76%
    05:00 +5°C° 0 mm 3 m/S 761 mmHg 78%
    06:00 +5°C° 0 mm 3 m/S 761 mmHg 77%
    07:00 +5°C° 0 mm 3 m/S 761 mmHg 77%
    08:00 +5°C° 0 mm 3 m/S 761 mmHg 77%
    09:00 +7°C° 0 mm 4 m/S 762 mmHg 72%
    10:00 +9°C° 0 mm 5 m/S 762 mmHg 67%
    11:00 +11°C° 0 mm 6 m/S 762 mmHg 63%
    12:00 +11°C° 0 mm 6 m/S 762 mmHg 59%
    13:00 +11°C° 0 mm 6 m/S 762 mmHg 55%
    14:00 +11°C° 0 mm 6 m/S 763 mmHg 50%
    15:00 +10°C° 0 mm 7 m/S 763 mmHg 56%
    16:00 +8°C° 0 mm 9 m/S 764 mmHg 61%
    17:00 +7°C° 0 mm 10 m/S 764 mmHg 66%
    18:00 +6°C° 0 mm 10 m/S 764 mmHg 65%
    19:00 +6°C° 0 mm 9 m/S 765 mmHg 65%
    20:00 +5°C° 0 mm 9 m/S 766 mmHg 64%
    21:00 +5°C° 0 mm 9 m/S 766 mmHg 63%
    22:00 +3°C° 0 mm 9 m/S 767 mmHg 62%
    23:00 +3°C° 0 mm 9 m/S 767 mmHg 61%

    24 Januar, Freitag

    Zeit Temperatur Niederschläge Wind Luftdruck Luftfeuchtigkeit
    00:00 +2°C° 0 mm 9 m/S 767 mmHg 62%
    01:00 +2°C° 0 mm 10 m/S 767 mmHg 63%
    02:00 +2°C° 0 mm 10 m/S 768 mmHg 63%
    03:00 +2°C° 0 mm 9 m/S 768 mmHg 63%
    04:00 +2°C° 0 mm 9 m/S 768 mmHg 62%
    05:00 +2°C° 0 mm 9 m/S 768 mmHg 62%
    06:00 +2°C° 0 mm 9 m/S 768 mmHg 62%
    07:00 +2°C° 0 mm 9 m/S 769 mmHg 62%
    08:00 +2°C° 0 mm 8 m/S 769 mmHg 62%
    09:00 +4°C° 0 mm 8 m/S 769 mmHg 59%
    10:00 +5°C° 0 mm 8 m/S 769 mmHg 56%
    11:00 +5°C° 0 mm 7 m/S 770 mmHg 53%
    12:00 +6°C° 0 mm 7 m/S 769 mmHg 52%
    13:00 +6°C° 0 mm 7 m/S 769 mmHg 51%
    14:00 +8°C° 0 mm 7 m/S 768 mmHg 49%
    15:00 +7°C° 0 mm 6 m/S 768 mmHg 51%
    16:00 +7°C° 0 mm 6 m/S 768 mmHg 54%
    17:00 +5°C° 0 mm 6 m/S 768 mmHg 56%
    18:00 +6°C° 0 mm 5 m/S 768 mmHg 58%
    19:00 +5°C° 0 mm 5 m/S 768 mmHg 60%
    20:00 +5°C° 0 mm 4 m/S 768 mmHg 63%
    21:00 +5°C° 0 mm 4 m/S 768 mmHg 64%
    22:00 +5°C° 0 mm 4 m/S 768 mmHg 66%
    23:00 +4°C° 0 mm 4 m/S 768 mmHg 67%

    25 Januar, Samstag

    Zeit Temperatur Niederschläge Wind Luftdruck Luftfeuchtigkeit
    00:00 +4°C° 0 mm 3 m/S 767 mmHg 68%
    01:00 +4°C° 0 mm 3 m/S 767 mmHg 69%
    02:00 +4°C° 0 mm 3 m/S 767 mmHg 71%
    03:00 +3°C° 0 mm 3 m/S 767 mmHg 71%
    04:00 +4°C° 0 mm 2 m/S 766 mmHg 72%
    05:00 +4°C° 0 mm 2 m/S 766 mmHg 73%
    06:00 +4°C° 0 mm 2 m/S 766 mmHg 73%
    07:00 +4°C° 0 mm 2 m/S 766 mmHg 73%
    08:00 +4°C° 0 mm 2 m/S 766 mmHg 73%
    09:00 +7°C° 0 mm 1 m/S 767 mmHg 66%
    10:00 +9°C° 0 mm 1 m/S 767 mmHg 59%
    11:00 +10°C° 0 mm 0 m/S 767 mmHg 51%
    12:00 +11°C° 0 mm 1 m/S 767 mmHg 50%
    13:00 +12°C° 0 mm 1 m/S 766 mmHg 49%
    14:00 +12°C° 0 mm 1 m/S 766 mmHg 48%
    15:00 +12°C° 0 mm 1 m/S 766 mmHg 53%
    16:00 +11°C° 0 mm 1 m/S 766 mmHg 59%
    17:00 +9°C° 0 mm 2 m/S 765 mmHg 64%
    18:00 +8°C° 0 mm 2 m/S 765 mmHg 67%
    19:00 +8°C° 0 mm 2 m/S 766 mmHg 69%
    20:00 +7°C° 0 mm 3 m/S 766 mmHg 71%
    21:00 +8°C° 0 mm 3 m/S 766 mmHg 74%
    22:00 +7°C° 0 mm 4 m/S 766 mmHg 77%
    23:00 +7°C° 0 mm 4 m/S 766 mmHg 80%
    Mehr zeigen